Date,TemperatureHighF,TemperatureAvgF,TemperatureLowF,DewpointHighF,DewpointAvgF,DewpointLowF,HumidityHigh,HumidityAvg,HumidityLow,PressureMaxIn,PressureMinIn,WindSpeedMaxMPH,WindSpeedAvgMPH,GustSpeedMaxMPH,PrecipitationSumIn
2013-3-1,59.5,49.0,40.1,40.5,34.9,29.7,85,61,35,30.15,30.00,11,4,18,0.00
2013-3-2,48.5,40.6,33.9,32.5,28.9,25.3,83,64,50,30.24,30.11,22,6,22,0.00
2013-3-3,53.9,39.4,31.1,26.8,24.9,21.8,78,59,32,30.28,30.14,16,6,16,0.00
2013-3-4,61.4,58.3,53.9,55.7,53.1,45.8,93,83,70,30.14,29.96,11,7,15,0.00
2013-3-5,75.1,61.6,50.6,63.8,54.2,41.3,95,79,45,30.16,29.93,17,4,17,0.00
2013-3-6,61.8,51.9,43.6,43.4,31.9,26.8,76,48,27,30.30,30.16,19,5,19,0.00
2013-3-7,54.9,46.9,37.1,44.6,37.6,31.3,90,71,57,30.35,30.22,7,2,17,0.00
2013-3-8,61.6,52.6,40.8,52.1,45.6,37.9,97,79,51,30.30,30.18,8,2,17,0.00
2013-3-9,62.7,58.0,49.7,60.6,55.1,47.6,99,90,76,30.19,29.98,11,6,17,0.00
2013-3-10,67.8,64.2,61.5,64.2,62.6,60.3,99,95,88,30.01,29.88,12,8,18,0.10
2013-3-11,64.7,54.9,47.6,64.3,51.2,40.5,100,88,63,30.00,29.81,15,6,24,0.08
2013-3-12,66.4,52.9,40.6,48.9,40.3,36.8,91,65,36,30.18,29.99,8,3,17,0.00
2013-3-13,65.9,55.1,44.2,41.8,32.8,24.2,76,47,23,30.36,30.18,11,5,18,0.00
2013-3-14,58.6,51.1,39.7,48.7,35.5,24.7,79,56,31,30.44,30.28,6,3,17,0.00
2013-3-15,66.4,58.6,46.9,56.4,51.6,45.3,96,78,64,30.31,30.13,9,4,17,0.00
2013-3-16,71.5,63.6,56.5,63.7,59.6,55.3,97,87,67,30.14,29.96,9,4,17,0.00
2013-3-17,69.6,64.4,59.9,65.6,62.3,59.0,98,93,86,29.99,29.86,11,4,17,0.00
2013-3-18,74.0,67.8,63.7,69.9,66.1,62.5,100,95,87,29.90,29.75,10,4,17,0.00
2013-3-19,68.9,63.0,56.3,67.5,58.4,50.8,100,85,70,30.02,29.86,8,4,17,0.01
2013-3-20,67.3,58.4,50.4,52.7,40.2,31.7,80,52,31,30.12,29.96,10,4,19,0.01
2013-3-21,60.1,53.5,44.5,49.2,38.7,31.3,70,58,43,30.06,29.88,10,5,17,0.00
2013-3-22,65.3,62.5,58.9,62.4,57.2,48.7,95,83,64,29.89,29.79,13,8,18,0.12
2013-3-23,68.8,65.3,62.7,67.2,64.3,60.3,100,97,92,29.85,29.57,9,6,17,0.02
2013-3-24,72.2,64.7,48.1,69.6,55.4,33.3,100,75,31,29.97,29.57,14,8,28,0.00
2013-3-25,59.3,47.8,37.5,35.0,28.8,21.4,78,51,25,30.23,29.97,13,8,22,0.00
2013-3-26,55.8,45.0,35.2,30.3,27.8,22.9,75,53,31,30.37,30.23,11,5,18,0.00
2013-3-27,54.9,46.0,33.9,44.3,34.9,28.7,82,66,50,30.44,30.28,8,4,17,0.00
2013-3-28,61.4,53.2,39.7,52.6,45.3,39.1,98,76,50,30.36,30.25,9,4,17,0.00
2013-3-29,66.0,56.9,43.0,59.6,53.5,42.6,99,89,71,30.32,30.19,5,2,17,0.00
2013-3-30,70.7,63.9,54.9,63.1,60.1,54.3,100,88,69,30.20,30.02,10,3,17,0.00
2013-3-31,73.0,65.5,61.4,68.8,63.8,60.5,100,95,86,30.06,29.88,12,3,20,0.34